[Date Prev][Date Next][Thread Prev][Thread Next] - [Date Index][Thread Index][Author Index]
2 Line ISS Keps 4-17
- Subject: [sarex] 2 Line ISS Keps 4-17
- From: "Dave Larsen PhD" <doc@xxxxxxxxxxx>
- Date: Wed, 17 Apr 2002 04:30:13 -0700
ISS
1 25544U 98067A 02107.26643519 .00045053 00000-0 54842-3 0 3184
2 25544 51.6392 358.9766 0004198 6.4793 134.6346 15.60057127194525
----
Via the sarex mailing list at AMSAT.ORG courtesy of AMSAT-NA.
To unsubscribe, send "unsubscribe sarex" to Majordomo@amsat.org
AMSAT Home